FW6002 Weather Reports


Display with metric or nautical units.
time (UTC)temp
F
wind
direction
speed
MPH
gust
MPH
rain 1hr
in
rain 24hr
in
rain mn
in
humidity
%
barometer
mb
20230129191055 75 212 4.0 13.0 0.00 0.21 0.21 85 1013.3
20230129190555 75 270 4.0 13.0 0.00 0.21 0.21 85 1013.5
20230129190104 75 279 5.0 13.0 0.00 0.21 0.21 84 1013.5
20230129185556 75 185 3.0 12.0 0.00 0.21 0.21 85 1013.5
20230129185054 75 201 4.0 12.0 0.00 0.21 0.21 85 1013.6
20230129184601 75 257 3.0 10.0 0.00 0.21 0.21 86 1013.8
20230129184055 75 194 4.0 10.0 0.00 0.21 0.21 86 1013.7
20230129183555 75 169 4.0 11.0 0.00 0.21 0.21 87 1013.8
20230129183124 75 230 4.0 12.0 0.00 0.21 0.21 86 1013.9
20230129182555 75 197 4.0 12.0 0.00 0.21 0.21 85 1014.0
20230129182055 75 176 4.0 16.0 0.00 0.21 0.21 85 1014.1
20230129181600 76 225 5.0 16.0 0.00 0.21 0.21 84 1014.0
20230129181056 76 313 5.0 10.0 0.00 0.21 0.21 84 1014.2
20230129180559 77 207 3.0 12.0 0.00 0.21 0.21 85 1014.3
20230129180102 77 207 4.0 12.0 0.00 0.21 0.21 85 1014.3
20230129175555 76 89 5.0 12.0 0.00 0.21 0.21 86 1014.4
20230129175057 76 153 5.0 13.0 0.00 0.21 0.21 86 1014.4
20230129174600 75 111 3.0 13.0 0.00 0.21 0.21 86 1014.5
20230129174055 76 164 5.0 13.0 0.00 0.21 0.21 87 1014.6
20230129173556 75 146 5.0 12.0 0.00 0.21 0.21 87 1014.7
20230129173058 75 199 5.0 13.0 0.00 0.21 0.21 87 1014.6
20230129172555 75 333 4.0 14.0 0.00 0.21 0.21 87 1014.9
20230129172058 75 185 6.0 14.0 0.00 0.21 0.21 87 1015.0
20230129171607 75 217 5.0 13.0 0.00 0.21 0.21 88 1015.0
20230129171056 75 171 5.0 13.0 0.00 0.21 0.21 88 1015.2
20230129170556 75 186 6.0 12.0 0.00 0.21 0.21 89 1015.1
20230129170124 74 134 4.0 10.0 0.00 0.21 0.21 90 1015.2
20230129165555 74 223 3.0 10.0 0.00 0.21 0.21 91 1015.2
20230129165055 74 85 4.0 10.0 0.00 0.21 0.21 92 1015.3
20230129164616 74 195 3.0 8.0 0.00 0.21 0.21 92 1015.3
20230129164055 73 165 3.0 8.0 0.00 0.21 0.21 93 1015.5
20230129163555 73 173 3.0 9.0 0.00 0.21 0.21 93 1015.6
20230129163127 72 150 3.0 9.0 0.00 0.21 0.21 94 1015.6
20230129162556 72 148 3.0 9.0 0.00 0.21 0.21 94 1015.6
20230129162055 72 155 3.0 9.0 0.00 0.21 0.21 94 1015.7
20230129161619 72 157 2.0 9.0 0.00 0.21 0.21 94 1015.7
20230129161056 72 138 2.0 10.0 0.00 0.21 0.21 94 1015.7
20230129160556 72 161 3.0 10.0 0.00 0.21 0.21 94 1015.7
20230129160103 72 152 3.0 11.0 0.00 0.21 0.21 94 1015.8
20230129155555 72 181 4.0 11.0 0.00 0.21 0.21 94 1015.7
20230129155055 72 204 4.0 12.0 0.00 0.21 0.21 94 1015.8
20230129154625 72 182 4.0 12.0 0.00 0.21 0.21 95 1015.5
20230129154058 72 200 4.0 12.0 0.00 0.21 0.21 95 1015.6
20230129153555 72 223 4.0 11.0 0.00 0.21 0.21 95 1015.4
20230129153108 72 161 3.0 10.0 0.00 0.21 0.21 95 1015.3
20230129152556 71 200 3.0 11.0 0.00 0.21 0.21 95 1015.2
20230129152055 71 177 5.0 13.0 0.00 0.21 0.21 96 1015.3
20230129151618 71 134 3.0 13.0 0.00 0.21 0.21 96 1015.2
20230129151055 71 201 4.0 13.0 0.00 0.21 0.21 96 1015.1
20230129150556 71 179 4.0 15.0 0.00 0.21 0.21 96 1014.8
20230129150059 71 202 5.0 15.0 0.00 0.21 0.21 96 1014.9
20230129145559 71 178 4.0 15.0 0.00 0.23 0.21 96 1014.8
20230129145057 70 183 5.0 15.0 0.00 0.23 0.21 96 1014.8
20230129144613 70 144 4.0 11.0 0.00 0.23 0.21 96 1014.6
20230129144055 70 183 5.0 11.0 0.00 0.23 0.21 97 1014.4
20230129143555 70 194 3.0 10.0 0.01 0.23 0.21 97 1014.4
20230129143100 70 138 3.0 10.0 0.01 0.23 0.21 97 1014.4
20230129142555 69 207 3.0 10.0 0.01 0.23 0.21 97 1014.5
20230129142055 69 165 3.0 7.0 0.01 0.23 0.21 97 1014.3
20230129141636 69 153 2.0 6.0 0.01 0.23 0.21 97 1014.3
20230129141055 68 157 3.0 6.0 0.01 0.23 0.21 97 1014.5
20230129140557 68 146 2.0 7.0 0.01 0.23 0.21 97 1014.5
20230129140103 68 146 2.0 8.0 0.02 0.23 0.21 97 1014.4
20230129135555 68 138 1.0 8.0 0.03 0.26 0.21 97 1014.3
20230129135056 68 169 2.0 8.0 0.05 0.26 0.21 97 1014.2
20230129134606 68 132 2.0 6.0 0.06 0.26 0.21 97 1014.2
20230129134055 68 146 2.0 6.0 0.07 0.26 0.21 97 1014.2
20230129133557 68 146 1.0 6.0 0.07 0.25 0.20 97 1014.2
20230129133058 67 167 1.0 5.0 0.08 0.25 0.20 97 1014.1
20230129132557 67 114 2.0 6.0 0.16 0.25 0.20 97 1014.1
20230129132057 67 0 0.0 6.0 0.17 0.25 0.20 97 1014.0
20230129131613 67 141 1.0 5.0 0.17 0.25 0.20 97 1014.0
20230129131055 67 152 1.0 5.0 0.17 0.25 0.20 97 1014.0
20230129130555 67 133 2.0 5.0 0.17 0.25 0.20 97 1013.9
20230129130104 67 0 0.0 4.0 0.16 0.24 0.19 97 1013.9
20230129125555 67 0 1.0 5.0 0.16 0.27 0.18 97 1013.7
20230129125056 67 104 1.0 5.0 0.14 0.25 0.16 97 1013.6
20230129124601 67 0 1.0 4.0 0.13 0.24 0.15 97 1013.7
20230129124102 67 0 1.0 4.0 0.12 0.23 0.14 96 1013.8
20230129123555 67 114 1.0 4.0 0.11 0.22 0.13 96 1013.8
20230129123101 67 122 0.0 3.0 0.10 0.21 0.12 96 1013.8
20230129122556 67 0 0.0 3.0 0.02 0.13 0.04 96 1013.9
20230129122057 67 113 0.0 3.0 0.01 0.12 0.03 96 1014.0
20230129121559 67 0 0.0 4.0 0.01 0.12 0.03 96 1014.1
20230129121059 67 0 0.0 5.0 0.01 0.12 0.03 96 1014.0
20230129120555 67 0 1.0 5.0 0.01 0.12 0.03 96 1014.1
20230129120103 67 165 0.0 2.0 0.01 0.12 0.03 96 1014.2
20230129115555 67 0 0.0 0.0 0.00 0.12 0.02 96 1014.1
20230129115056 67 0 0.0 2.0 0.01 0.12 0.02 96 1014.2
20230129114604 67 0 0.0 3.0 0.01 0.12 0.02 96 1014.1
20230129114055 67 0 0.0 3.0 0.01 0.12 0.02 96 1014.1
20230129113556 67 0 0.0 2.0 0.01 0.12 0.02 96 1014.2
20230129113104 67 0 0.0 0.0 0.01 0.12 0.02 96 1014.2
20230129112555 67 0 0.0 0.0 0.01 0.12 0.02 96 1014.2
20230129112055 67 0 0.0 0.0 0.01 0.12 0.02 96 1014.2
20230129111607 67 0 0.0 0.0 0.01 0.12 0.02 96 1014.4
20230129111130 67 0 0.0 0.0 0.01 0.12 0.02 96 1014.5
20230129110555 67 0 0.0 0.0 0.01 0.12 0.02 96 1014.4
20230129110102 67 0 0.0 0.0 0.01 0.12 0.02 96 1014.5
20230129105557 67 0 0.0 0.0 0.01 0.15 0.02 96 1014.5
20230129105055 67 0 0.0 0.0 0.00 0.14 0.01 96 1014.6
20230129104602 67 0 0.0 0.0 0.00 0.14 0.01 96 1014.7
20230129104054 67 0 0.0 0.0 0.00 0.14 0.01 96 1014.7
20230129103556 67 0 0.0 0.0 0.01 0.14 0.01 96 1014.7
20230129103108 67 0 0.0 0.0 0.01 0.14 0.01 96 1014.6
20230129102555 67 0 0.0 0.0 0.01 0.14 0.01 96 1014.6
20230129102056 67 0 0.0 3.0 0.01 0.14 0.01 95 1014.6
20230129101607 67 0 0.0 4.0 0.01 0.14 0.01 95 1014.4
20230129101055 67 148 0.0 4.0 0.01 0.14 0.01 95 1014.5
20230129100555 67 0 0.0 4.0 0.01 0.14 0.01 95 1014.5
20230129100117 67 143 0.0 3.0 0.01 0.14 0.01 95 1014.6
20230129095559 67 124 0.0 3.0 0.01 0.14 0.01 95 1014.8
20230129095056 67 0 0.0 4.0 0.01 0.14 0.01 95 1014.8
20230129094558 67 0 0.0 4.0 0.01 0.14 0.01 95 1014.9
20230129094055 67 0 0.0 3.0 0.01 0.14 0.01 94 1014.9
20230129093555 67 0 0.0 3.0 0.00 0.13 0.00 94 1014.9
20230129093100 67 0 0.0 0.0 0.00 0.13 0.00 94 1015.0
20230129092554 67 0 0.0 0.0 0.00 0.13 0.00 94 1015.0
20230129092055 67 0 0.0 0.0 0.00 0.13 0.00 94 1015.1
20230129091559 67 0 0.0 0.0 0.00 0.13 0.00 94 1015.1
20230129091055 67 0 0.0 0.0 0.00 0.13 0.00 94 1015.0
20230129090556 67 0 0.0 0.0 0.00 0.13 0.00 94 1015.1
20230129090100 67 0 0.0 0.0 0.00 0.13 0.00 94 1015.1
20230129085559 67 0 0.0 0.0 0.00 0.13 0.00 93 1015.3
20230129085056 67 0 0.0 2.0 0.00 0.13 0.00 93 1015.3
20230129084603 67 0 0.0 3.0 0.00 0.13 0.00 93 1015.2
20230129084055 67 0 0.0 3.0 0.00 0.13 0.00 93 1015.1
20230129083557 68 360 0.0 5.0 0.00 0.13 0.00 92 1015.3
20230129083100 68 0 1.0 5.0 0.00 0.13 0.00 92 1015.3
20230129082555 68 76 2.0 6.0 0.00 0.13 0.00 92 1015.6
20230129082055 69 117 2.0 7.0 0.00 0.13 0.00 92 1015.6
20230129081601 69 111 1.0 7.0 0.00 0.13 0.00 92 1015.5
20230129081055 69 103 0.0 7.0 0.00 0.13 0.00 92 1015.6
20230129080555 69 137 2.0 7.0 0.00 0.13 0.00 92 1015.7
20230129080101 69 101 2.0 5.0 0.00 0.13 0.00 92 1015.9
20230129075557 69 155 2.0 8.0 0.00 0.13 0.00 92 1015.7
20230129075055 69 163 2.0 8.0 0.00 0.13 0.00 92 1015.9
20230129074600 69 111 2.0 7.0 0.00 0.13 0.00 92 1015.9
20230129074100 69 151 2.0 9.0 0.00 0.13 0.00 92 1016.0
20230129073555 69 111 2.0 9.0 0.00 0.13 0.00 92 1016.1
20230129073059 69 0 3.0 9.0 0.00 0.13 0.00 92 1016.2
20230129072556 69 147 2.0 6.0 0.00 0.13 0.00 92 1016.3
20230129072056 69 154 2.0 8.0 0.00 0.13 0.00 92 1016.2
20230129071608 69 110 2.0 8.0 0.00 0.13 0.00 92 1016.2
20230129071057 69 108 1.0 7.0 0.00 0.13 0.00 92 1016.2
20230129070557 69 136 3.0 7.0 0.00 0.13 0.00 91 1016.4
20230129070102 69 150 2.0 8.0 0.00 0.13 0.00 92 1016.4
20230129065557 69 115 3.0 8.0 0.00 0.13 0.00 92 1016.3
20230129065054 69 161 1.0 7.0 0.00 0.13 0.00 92 1016.4
20230129064618 69 114 2.0 7.0 0.00 0.13 0.00 92 1016.4
20230129064054 69 163 2.0 6.0 0.00 0.13 0.00 92 1016.5
20230129063554 69 195 1.0 6.0 0.00 0.13 0.00 92 1016.5
20230129063101 69 173 2.0 6.0 0.00 0.13 0.00 92 1016.4
20230129062556 69 114 2.0 7.0 0.00 0.13 0.00 92 1016.5
20230129062055 69 161 2.0 7.0 0.00 0.13 0.00 91 1016.6
20230129061600 69 130 2.0 7.0 0.00 0.13 0.00 92 1016.5
20230129061056 69 166 1.0 6.0 0.00 0.13 0.00 92 1016.7
20230129060556 69 137 2.0 6.0 0.00 0.13 0.00 91 1016.7
20230129060105 69 0 1.0 6.0 0.00 0.13 0.00 91 1016.5
20230129055555 69 135 1.0 6.0 0.00 0.13 0.13 91 1016.7
20230129055055 69 143 1.0 4.0 0.00 0.13 0.13 91 1016.5
20230129054621 69 117 2.0 5.0 0.00 0.13 0.13 91 1016.6
20230129054055 69 124 2.0 7.0 0.00 0.13 0.13 91 1016.8
20230129053555 69 107 2.0 7.0 0.00 0.13 0.13 91 1016.7
20230129053111 69 152 2.0 6.0 0.00 0.13 0.13 91 1016.8
20230129052554 68 138 1.0 6.0 0.00 0.13 0.13 91 1016.7
20230129052055 68 142 2.0 8.0 0.00 0.13 0.13 91 1016.8
20230129051612 68 126 3.0 8.0 0.00 0.13 0.13 91 1016.7
20230129051055 68 167 2.0 9.0 0.00 0.13 0.13 91 1016.6
20230129050555 68 133 3.0 9.0 0.00 0.13 0.13 91 1016.6
20230129050109 68 132 2.0 7.0 0.00 0.13 0.13 91 1016.6
20230129045600 68 164 1.0 7.0 0.00 0.13 0.13 90 1016.9
20230129045055 68 158 2.0 7.0 0.00 0.13 0.13 90 1016.9
20230129044600 68 161 2.0 6.0 0.00 0.13 0.13 90 1016.8
20230129044055 68 110 1.0 6.0 0.00 0.13 0.13 90 1016.9
20230129043555 69 103 2.0 6.0 0.00 0.13 0.13 90 1017.0
20230129043100 69 134 2.0 7.0 0.00 0.13 0.13 90 1017.0
20230129042555 69 127 2.0 7.0 0.00 0.13 0.13 90 1017.0
20230129042055 69 139 1.0 6.0 0.00 0.13 0.13 90 1017.0
20230129041603 68 144 2.0 6.0 0.00 0.13 0.13 90 1017.0
20230129041059 68 128 2.0 6.0 0.00 0.13 0.13 90 1017.0
20230129040555 68 112 2.0 6.0 0.00 0.13 0.13 90 1017.0
20230129040117 68 95 2.0 7.0 0.00 0.13 0.13 90 1017.0
20230129035554 68 102 2.0 7.0 0.00 0.13 0.13 90 1017.0
20230129035055 68 148 2.0 6.0 0.00 0.13 0.13 90 1016.9
20230129034557 68 184 2.0 6.0 0.00 0.13 0.13 90 1016.8
20230129034055 68 152 2.0 6.0 0.00 0.13 0.13 90 1016.9
20230129033556 68 105 1.0 6.0 0.00 0.13 0.13 90 1017.0
20230129033108 68 134 2.0 5.0 0.00 0.13 0.13 90 1017.0
20230129032558 68 0 1.0 7.0 0.00 0.13 0.13 90 1017.0
20230129032056 68 124 1.0 7.0 0.00 0.13 0.13 90 1017.0
20230129031559 68 152 1.0 7.0 0.00 0.13 0.13 90 1017.0
20230129031056 68 107 2.0 7.0 0.00 0.13 0.13 90 1016.9
20230129030554 68 150 2.0 6.0 0.00 0.13 0.13 90 1017.0
20230129030106 68 109 1.0 6.0 0.00 0.13 0.13 90 1017.0
20230129025556 68 125 1.0 6.0 0.00 0.13 0.13 90 1016.9
20230129025054 68 159 1.0 5.0 0.00 0.13 0.13 89 1016.9
20230129024601 68 0 1.0 6.0 0.00 0.13 0.13 89 1016.8
20230129024054 68 125 1.0 6.0 0.00 0.13 0.13 89 1016.6
20230129023555 68 115 1.0 5.0 0.00 0.13 0.13 89 1016.5
20230129023058 68 139 1.0 6.0 0.00 0.13 0.13 89 1016.7
20230129022554 68 0 2.0 6.0 0.00 0.13 0.13 89 1016.6
20230129022058 68 0 2.0 6.0 0.00 0.13 0.13 89 1016.5
20230129021605 68 111 2.0 7.0 0.00 0.13 0.13 89 1016.3
20230129021054 68 87 2.0 7.0 0.00 0.13 0.13 89 1016.3
20230129020555 68 189 3.0 7.0 0.00 0.13 0.13 89 1016.3
20230129020117 68 138 2.0 9.0 0.00 0.13 0.13 88 1016.4
20230129015554 68 115 2.0 9.0 0.00 0.13 0.13 88 1016.3
20230129015055 68 132 2.0 10.0 0.00 0.13 0.13 88 1016.2
20230129014559 68 79 3.0 10.0 0.00 0.13 0.13 88 1016.3
20230129014055 68 117 3.0 10.0 0.00 0.13 0.13 88 1016.2
20230129013554 68 145 3.0 10.0 0.00 0.13 0.13 88 1016.0
20230129013058 68 136 3.0 10.0 0.00 0.13 0.13 88 1016.0
20230129012555 68 158 3.0 10.0 0.00 0.13 0.13 88 1016.0
20230129012054 68 103 3.0 11.0 0.00 0.13 0.13 88 1016.2
20230129011558 68 192 3.0 11.0 0.00 0.13 0.13 88 1016.1
20230129011054 68 99 3.0 10.0 0.00 0.13 0.13 88 1016.0
20230129010553 68 153 3.0 10.0 0.00 0.13 0.13 88 1015.9
20230129010110 69 120 3.0 9.0 0.00 0.13 0.13 88 1015.8
20230129005555 69 126 3.0 9.0 0.00 0.13 0.13 88 1015.8
20230129005057 69 155 2.0 7.0 0.00 0.13 0.13 88 1015.8
20230129004612 69 117 3.0 7.0 0.00 0.13 0.13 87 1015.8
20230129004055 69 77 1.0 8.0 0.00 0.13 0.13 87 1015.8
20230129003557 69 138 2.0 9.0 0.00 0.13 0.13 87 1015.6
20230129003118 69 140 2.0 10.0 0.00 0.13 0.13 87 1015.7
20230129002554 69 150 3.0 10.0 0.00 0.13 0.13 87 1015.6
20230129002055 69 139 2.0 8.0 0.00 0.13 0.13 86 1015.8
20230129001600 69 129 2.0 12.0 0.00 0.13 0.13 86 1015.6
20230129001054 69 154 3.0 12.0 0.00 0.13 0.13 86 1015.7
20230129000553 69 132 2.0 11.0 0.00 0.13 0.13 86 1015.6
20230129000106 69 104 4.0 11.0 0.00 0.13 0.13 85 1015.6
20230128235553 69 0 4.0 9.0 0.00 0.13 0.13 85 1015.7
20230128235057 69 101 2.0 12.0 0.00 0.13 0.13 85 1015.7
20230128234558 69 130 4.0 12.0 0.00 0.13 0.13 85 1015.7
20230128234055 69 188 3.0 9.0 0.00 0.13 0.13 85 1015.7
20230128233554 70 130 4.0 9.0 0.00 0.13 0.13 85 1015.6
20230128233057 70 136 3.0 11.0 0.00 0.13 0.13 85 1015.7
20230128232558 70 0 2.0 11.0 0.00 0.13 0.13 85 1015.7
20230128232054 70 0 3.0 11.0 0.00 0.13 0.13 84 1015.6
20230128231609 70 76 2.0 9.0 0.00 0.13 0.13 84 1015.6
20230128231055 70 135 3.0 11.0 0.00 0.13 0.13 84 1015.7
20230128230554 70 0 3.0 11.0 0.00 0.13 0.13 84 1015.6
20230128230104 70 124 3.0 9.0 0.00 0.13 0.13 84 1015.5
20230128225558 70 150 3.0 10.0 0.00 0.13 0.13 84 1015.5
20230128225056 70 89 3.0 10.0 0.00 0.13 0.13 83 1015.5
20230128224602 70 131 3.0 12.0 0.00 0.13 0.13 83 1015.5
20230128224054 70 134 4.0 12.0 0.00 0.13 0.13 83 1015.7
20230128223558 70 132 3.0 11.0 0.00 0.13 0.13 83 1015.6
20230128223108 70 96 4.0 10.0 0.00 0.13 0.13 83 1015.5
20230128222554 70 133 3.0 11.0 0.00 0.13 0.13 82 1015.6
20230128222055 71 94 4.0 11.0 0.00 0.13 0.13 82 1015.7
20230128221558 71 238 4.0 11.0 0.00 0.13 0.13 82 1015.7
20230128221057 71 74 5.0 12.0 0.00 0.13 0.13 82 1015.6
20230128220554 71 200 5.0 13.0 0.00 0.13 0.13 81 1015.7
20230128220106 71 94 4.0 13.0 0.00 0.13 0.13 81 1015.5
20230128215556 71 155 6.0 14.0 0.00 0.13 0.13 81 1015.6
20230128215054 71 98 5.0 16.0 0.00 0.13 0.13 81 1015.7
20230128214559 71 178 6.0 16.0 0.00 0.13 0.13 80 1015.6
20230128214058 71 0 6.0 16.0 0.00 0.13 0.13 80 1015.7
20230128213556 71 122 5.0 16.0 0.00 0.13 0.13 80 1015.7
20230128213103 71 181 5.0 13.0 0.00 0.13 0.13 80 1015.6
20230128212554 71 142 4.0 13.0 0.00 0.13 0.13 80 1015.5
20230128212054 71 164 6.0 13.0 0.00 0.13 0.13 80 1015.5
20230128211607 71 128 5.0 13.0 0.00 0.13 0.13 80 1015.5
20230128211057 71 164 3.0 13.0 0.00 0.13 0.13 80 1015.6
20230128210556 71 165 6.0 13.0 0.00 0.13 0.13 79 1015.6
20230128210107 72 170 5.0 13.0 0.00 0.13 0.13 79 1015.6
20230128205556 72 146 6.0 13.0 0.00 0.13 0.13 79 1015.7
20230128205057 72 167 5.0 13.0 0.00 0.13 0.13 79 1015.7
20230128204613 71 88 6.0 16.0 0.00 0.13 0.13 79 1015.6
20230128204055 71 184 6.0 16.0 0.00 0.13 0.13 78 1015.7
20230128203555 72 132 4.0 17.0 0.00 0.13 0.13 78 1015.7
20230128203059 72 135 6.0 17.0 0.00 0.13 0.13 78 1015.8
20230128202557 71 180 6.0 14.0 0.00 0.13 0.13 78 1015.8
20230128202055 71 128 6.0 18.0 0.00 0.13 0.13 79 1015.9
20230128201601 71 173 6.0 18.0 0.00 0.13 0.13 78 1015.9
20230128201055 71 117 5.0 17.0 0.00 0.13 0.13 79 1015.9
20230128200556 71 158 7.0 17.0 0.00 0.13 0.13 79 1015.8
20230128200101 71 139 7.0 17.0 0.00 0.13 0.13 80 1015.9
20230128195557 71 169 7.0 16.0 0.00 0.13 0.13 79 1016.0
20230128195056 72 263 8.0 16.0 0.00 0.13 0.13 78 1016.0
20230128194612 72 40 6.0 15.0 0.00 0.13 0.13 78 1016.1
20230128194058 72 169 5.0 16.0 0.00 0.13 0.13 79 1016.1
20230128193555 72 158 6.0 16.0 0.00 0.13 0.13 79 1016.2
20230128193134 72 122 6.0 18.0 0.00 0.13 0.13 80 1016.3
20230128192557 71 137 4.0 18.0 0.00 0.13 0.13 81 1016.4
20230128192056 71 105 6.0 18.0 0.00 0.13 0.13 81 1016.5
20230128191559 71 142 6.0 15.0 0.00 0.13 0.13 81 1016.4